This is the latest recevied weather packets stored in our database for station/object KQ4OSL. If no packets are shown the sender has not sent any weather packets the latest 10 day(s).
| Time | Temp. | Humidity | Pressure | Rain* | Wind** | Luminosity | Snow |
|---|---|---|---|---|---|---|---|
| 1787723370 | 20° C | 97% | 1019.2 hPa | 0 mm | - | 0 W/m² | - |
| 1787723064 | 20.56° C | 97% | 1019.2 hPa | 0 mm | - | 0 W/m² | - |
| 1787722754 | 20° C | 97% | 1019.3 hPa | 0 mm | - | 0 W/m² | - |
| 1787722449 | 20.56° C | 97% | 1019.1 hPa | 0 mm | - | 0 W/m² | - |
| 1787722148 | 20.56° C | 96% | 1019.3 hPa | 0 mm | - | 0 W/m² | - |
| 1787721845 | 21.11° C | 94% | 1019.2 hPa | 0 mm | - | 0 W/m² | - |
| 1787721541 | 21.67° C | 92% | 1019.3 hPa | 0 mm | - | 0 W/m² | - |
| 1787721240 | 22.22° C | 90% | 1019.2 hPa | 0 mm | - | 0 W/m² | - |
| 1787720936 | 21.67° C | 90% | 1019.3 hPa | 0 mm | - | 0 W/m² | - |
| 1787720636 | 21.67° C | 91% | 1019.3 hPa | 0 mm | - | 0 W/m² | - |
| 1787720330 | 21.67° C | 91% | 1019.6 hPa | 0 mm | - | 0 W/m² | - |
| 1787720029 | 21.67° C | 90% | 1019.4 hPa | 0 mm | - | 0 W/m² | - |
| 1787719725 | 21.67° C | 91% | 1019.5 hPa | 0 mm | - | 0 W/m² | - |
| 1787719419 | 21.67° C | 91% | 1019.5 hPa | 0 mm | - | 0 W/m² | - |
| 1787719116 | 21.67° C | 92% | 1019.6 hPa | 0 mm | - | 0 W/m² | - |
| 1787718816 | 21.11° C | 93% | 1019.6 hPa | 0 mm | - | 0 W/m² | - |
| 1787718511 | 21.11° C | 94% | 1019.6 hPa | 0 mm | - | 0 W/m² | - |
| 1787718206 | 20.56° C | 94% | 1019.7 hPa | 0 mm | - | 0 W/m² | - |
| 1787717902 | 20.56° C | 94% | 1019.7 hPa | 0 mm | - | 0 W/m² | - |
| 1787717598 | 20.56° C | 95% | 1019.7 hPa | 0 mm | - | 0 W/m² | - |
| 1787717294 | 20.56° C | 94% | 1019.7 hPa | 0 mm | - | 0 W/m² | - |
| 1787716993 | 21.11° C | 93% | 1019.7 hPa | 0 mm | - | 0 W/m² | - |
| 1787716687 | 21.67° C | 91% | 1020 hPa | 0 mm | - | 0 W/m² | - |
| 1787716382 | 22.22° C | 89% | 1019.7 hPa | 0 mm | - | 0 W/m² | - |
| 1787716082 | 22.22° C | 87% | 1019.6 hPa | 0 mm | - | 0 W/m² | - |
* Rain latest hour (hover to see other rain measurements)
** Current wind speed in m/s (hover to see current wind gust speed)